User: anonymous   Login
Location: Bowman Observatory
(41.0326°N, 73.6210°W)
Time: 16:34:06
(UTC-04:00)
Language:

Cosmos 2298 Rocket - Orbit

View from above orbital plane
View from above orbital plane
View from above satellite
View from above satellite

Ground track
Ground track

The orbit data is extracted from the following two-line orbital elements,

1 23432U 94083B   16239.95948363 -.00000003 +00000-0 +83795-5 0  9997
2 23432 074.0322 116.0045 0004804 025.5632 072.5404 14.33450442133942
Epoch (UTC): 26 August 2016 23:01:39
Eccentricity: 0.0004804
inclination: 74.0322°
perigee height: 777 km
apogee height: 783 km
right ascension of ascending node: 116.0045°
argument of perigee: 25.5632°
revolutions per day: 14.33450442
mean anomaly at epoch: 72.5404°
orbit number at epoch: 13394

The dashed part of the orbit path shows where the satellite is in the earth's shadow,  

DLR